• In Deutschland
  • Länderverzeichnis
  • Für 7 Tage
  • Wassertemperatur
  • Satellitenkarten
  • Wetterkarte
  • Widgets
  • user-avatar
    Anmelden

    Stündliche Wetter Sölden

    Heute, 18 August, Samstag

    Zeit Temperatur Niederschläge Wind Luftdruck Luftfeuchtigkeit
    00:00 +8°C° 0 mm 1 m/S 586 mmHg 91%
    01:00 +7°C° 0 mm 1 m/S 586 mmHg 89%
    02:00 +7°C° 0 mm 1 m/S 586 mmHg 89%
    03:00 +7°C° 0 mm 1 m/S 586 mmHg 90%
    04:00 +7°C° 0 mm 1 m/S 586 mmHg 90%
    05:00 +8°C° 0 mm 1 m/S 586 mmHg 88%
    06:00 +9°C° 0 mm 1 m/S 587 mmHg 85%
    07:00 +11°C° 0 mm 1 m/S 588 mmHg 83%
    08:00 +12°C° 0,1 mm 1 m/S 589 mmHg 75%
    09:00 +14°C° 0,1 mm 1 m/S 589 mmHg 66%
    10:00 +16°C° 0,1 mm 1 m/S 590 mmHg 58%
    11:00 +16°C° 0,5 mm 1 m/S 590 mmHg 57%
    12:00 +17°C° 0,5 mm 2 m/S 591 mmHg 55%
    13:00 +17°C° 0,5 mm 2 m/S 591 mmHg 54%
    14:00 +17°C° 1,1 mm 2 m/S 590 mmHg 56%
    15:00 +16°C° 1,1 mm 2 m/S 590 mmHg 59%
    16:00 +16°C° 1,1 mm 2 m/S 590 mmHg 62%
    17:00 +14°C° 1,1 mm 1 m/S 589 mmHg 69%
    18:00 +13°C° 1,1 mm 1 m/S 589 mmHg 75%
    19:00 +10°C° 1,1 mm 0 m/S 588 mmHg 82%
    20:00 +10°C° 0,6 mm 0 m/S 588 mmHg 83%
    21:00 +10°C° 0,6 mm 1 m/S 588 mmHg 85%
    22:00 +9°C° 0,6 mm 1 m/S 588 mmHg 87%
    23:00 +9°C° 0,2 mm 1 m/S 588 mmHg 87%

    Morgen, 19 August, Sonntag

    Zeit Temperatur Niederschläge Wind Luftdruck Luftfeuchtigkeit
    00:00 +9°C° 0,2 mm 1 m/S 588 mmHg 88%
    01:00 +9°C° 0,2 mm 1 m/S 588 mmHg 89%
    02:00 +8°C° 0,1 mm 1 m/S 588 mmHg 89%
    03:00 +8°C° 0,1 mm 1 m/S 587 mmHg 89%
    04:00 +7°C° 0,1 mm 1 m/S 587 mmHg 90%
    05:00 +8°C° 0 mm 1 m/S 588 mmHg 87%
    06:00 +9°C° 0 mm 1 m/S 588 mmHg 84%
    07:00 +9°C° 0 mm 0 m/S 589 mmHg 81%
    08:00 +11°C° 0,1 mm 0 m/S 590 mmHg 74%
    09:00 +13°C° 0,1 mm 0 m/S 591 mmHg 66%
    10:00 +15°C° 0,1 mm 0 m/S 592 mmHg 59%
    11:00 +18°C° 0,9 mm 1 m/S 592 mmHg 58%
    12:00 +18°C° 0,9 mm 1 m/S 592 mmHg 58%
    13:00 +19°C° 0,9 mm 1 m/S 591 mmHg 57%
    14:00 +17°C° 1,6 mm 2 m/S 591 mmHg 60%
    15:00 +17°C° 1,6 mm 2 m/S 591 mmHg 62%
    16:00 +16°C° 1,6 mm 2 m/S 590 mmHg 65%
    17:00 +15°C° 1,2 mm 1 m/S 590 mmHg 71%
    18:00 +13°C° 1,2 mm 1 m/S 589 mmHg 78%
    19:00 +11°C° 1,2 mm 0 m/S 588 mmHg 85%
    20:00 +11°C° 0,6 mm 1 m/S 588 mmHg 87%
    21:00 +10°C° 0,6 mm 1 m/S 588 mmHg 89%
    22:00 +9°C° 0,6 mm 1 m/S 588 mmHg 91%
    23:00 +9°C° 0,1 mm 1 m/S 588 mmHg 91%

    übermorgen, 20 August, Montag

    Zeit Temperatur Niederschläge Wind Luftdruck Luftfeuchtigkeit
    00:00 +8°C° 0,1 mm 1 m/S 587 mmHg 92%
    01:00 +8°C° 0,1 mm 1 m/S 587 mmHg 92%
    02:00 +8°C° 0 mm 1 m/S 587 mmHg 92%
    03:00 +8°C° 0 mm 1 m/S 587 mmHg 92%
    04:00 +7°C° 0 mm 1 m/S 586 mmHg 92%
    05:00 +9°C° 0 mm 1 m/S 587 mmHg 90%
    06:00 +10°C° 0 mm 1 m/S 588 mmHg 87%
    07:00 +11°C° 0 mm 1 m/S 588 mmHg 84%
    08:00 +13°C° 0 mm 1 m/S 589 mmHg 77%
    09:00 +14°C° 0 mm 1 m/S 590 mmHg 69%
    10:00 +16°C° 0 mm 1 m/S 591 mmHg 61%
    11:00 +18°C° 0,5 mm 1 m/S 591 mmHg 59%
    12:00 +18°C° 0,5 mm 1 m/S 591 mmHg 57%
    13:00 +19°C° 0,5 mm 1 m/S 591 mmHg 55%
    14:00 +18°C° 1 mm 2 m/S 590 mmHg 58%
    15:00 +17°C° 1 mm 2 m/S 590 mmHg 60%
    16:00 +17°C° 1 mm 2 m/S 590 mmHg 63%
    17:00 +15°C° 0,9 mm 2 m/S 589 mmHg 70%
    18:00 +14°C° 0,9 mm 1 m/S 589 mmHg 77%
    19:00 +12°C° 0,9 mm 1 m/S 588 mmHg 83%
    20:00 +11°C° 0,4 mm 1 m/S 588 mmHg 86%
    21:00 +11°C° 0,4 mm 1 m/S 588 mmHg 88%
    22:00 +10°C° 0,4 mm 1 m/S 588 mmHg 90%
    23:00 +10°C° 0,1 mm 1 m/S 588 mmHg 91%

    21 August, Dienstag

    Zeit Temperatur Niederschläge Wind Luftdruck Luftfeuchtigkeit
    00:00 +9°C° 0,1 mm 1 m/S 588 mmHg 92%
    01:00 +9°C° 0,1 mm 1 m/S 587 mmHg 92%
    02:00 +9°C° 0,1 mm 1 m/S 587 mmHg 92%
    03:00 +8°C° 0,1 mm 1 m/S 587 mmHg 93%
    04:00 +8°C° 0,1 mm 1 m/S 587 mmHg 93%
    05:00 +9°C° 0 mm 1 m/S 587 mmHg 90%
    06:00 +10°C° 0 mm 1 m/S 588 mmHg 87%
    07:00 +11°C° 0 mm 1 m/S 588 mmHg 84%
    08:00 +13°C° 0,1 mm 1 m/S 589 mmHg 77%
    09:00 +15°C° 0,1 mm 1 m/S 590 mmHg 69%
    10:00 +18°C° 0,1 mm 1 m/S 591 mmHg 61%
    11:00 +18°C° 0,5 mm 1 m/S 591 mmHg 61%
    12:00 +18°C° 0,5 mm 1 m/S 591 mmHg 60%
    13:00 +19°C° 0,5 mm 1 m/S 591 mmHg 59%
    14:00 +18°C° 1 mm 1 m/S 591 mmHg 61%
    15:00 +18°C° 1 mm 1 m/S 590 mmHg 62%
    16:00 +18°C° 1 mm 1 m/S 590 mmHg 64%
    17:00 +15°C° 0,7 mm 1 m/S 589 mmHg 71%
    18:00 +13°C° 0,7 mm 1 m/S 589 mmHg 78%
    19:00 +11°C° 0,7 mm 0 m/S 588 mmHg 84%
    20:00 +11°C° 0,3 mm 1 m/S 588 mmHg 87%
    21:00 +10°C° 0,3 mm 1 m/S 588 mmHg 89%
    22:00 +9°C° 0,3 mm 1 m/S 588 mmHg 91%
    23:00 +9°C° 0 mm 1 m/S 588 mmHg 91%

    22 August, Mittwoch

    Zeit Temperatur Niederschläge Wind Luftdruck Luftfeuchtigkeit
    00:00 +9°C° 0 mm 1 m/S 588 mmHg 91%
    01:00 +9°C° 0 mm 1 m/S 587 mmHg 91%
    02:00 +8°C° 0 mm 1 m/S 587 mmHg 92%
    03:00 +8°C° 0 mm 1 m/S 587 mmHg 92%
    04:00 +8°C° 0 mm 1 m/S 587 mmHg 92%
    05:00 +9°C° 0 mm 1 m/S 587 mmHg 89%
    06:00 +10°C° 0 mm 1 m/S 588 mmHg 87%
    07:00 +11°C° 0 mm 1 m/S 588 mmHg 84%
    08:00 +13°C° 0 mm 1 m/S 589 mmHg 76%
    09:00 +15°C° 0 mm 1 m/S 590 mmHg 67%
    10:00 +18°C° 0 mm 1 m/S 591 mmHg 59%
    11:00 +18°C° 0,6 mm 1 m/S 591 mmHg 58%
    12:00 +19°C° 0,6 mm 1 m/S 591 mmHg 57%
    13:00 +19°C° 0,6 mm 1 m/S 591 mmHg 56%
    14:00 +19°C° 1,4 mm 1 m/S 590 mmHg 59%
    15:00 +18°C° 1,4 mm 1 m/S 590 mmHg 62%
    16:00 +18°C° 1,4 mm 1 m/S 590 mmHg 65%
    17:00 +15°C° 1,1 mm 1 m/S 589 mmHg 71%
    18:00 +13°C° 1,1 mm 1 m/S 588 mmHg 78%
    19:00 +11°C° 1,1 mm 0 m/S 588 mmHg 85%
    20:00 +10°C° 0,7 mm 0 m/S 588 mmHg 86%
    21:00 +11°C° 0,7 mm 1 m/S 587 mmHg 88%
    22:00 +10°C° 0,7 mm 1 m/S 587 mmHg 90%
    23:00 +10°C° 0,3 mm 1 m/S 587 mmHg 90%

    23 August, Donnerstag

    Zeit Temperatur Niederschläge Wind Luftdruck Luftfeuchtigkeit
    00:00 +9°C° 0,3 mm 1 m/S 587 mmHg 91%
    01:00 +9°C° 0,3 mm 1 m/S 587 mmHg 91%
    02:00 +9°C° 0,2 mm 1 m/S 586 mmHg 91%
    03:00 +9°C° 0,2 mm 1 m/S 586 mmHg 91%
    04:00 +8°C° 0,2 mm 1 m/S 586 mmHg 91%
    05:00 +9°C° 0,2 mm 1 m/S 586 mmHg 88%
    06:00 +10°C° 0,2 mm 1 m/S 586 mmHg 85%
    07:00 +11°C° 0,2 mm 1 m/S 587 mmHg 82%
    08:00 +13°C° 0,3 mm 1 m/S 587 mmHg 75%
    09:00 +15°C° 0,3 mm 1 m/S 588 mmHg 67%
    10:00 +15°C° 0,3 mm 0 m/S 589 mmHg 60%
    11:00 +18°C° 0,7 mm 1 m/S 589 mmHg 59%
    12:00 +18°C° 0,7 mm 1 m/S 588 mmHg 59%
    13:00 +18°C° 0,7 mm 1 m/S 588 mmHg 58%
    14:00 +16°C° 1,4 mm 1 m/S 588 mmHg 63%
    15:00 +16°C° 1,4 mm 1 m/S 587 mmHg 67%
    16:00 +15°C° 1,4 mm 1 m/S 587 mmHg 71%
    17:00 +14°C° 1,8 mm 1 m/S 586 mmHg 77%
    18:00 +12°C° 1,8 mm 1 m/S 586 mmHg 82%
    19:00 +11°C° 1,8 mm 1 m/S 585 mmHg 88%
    20:00 +10°C° 0,9 mm 1 m/S 585 mmHg 89%
    21:00 +10°C° 0,9 mm 1 m/S 585 mmHg 90%
    22:00 +9°C° 0,9 mm 1 m/S 585 mmHg 92%
    23:00 +9°C° 0,1 mm 1 m/S 584 mmHg 91%
    Mehr zeigen